430P/Scotti (2021)

Japanese version
Home page
Updated on November 15, 2021

---------------------------------------------------------------------

* Profile

Designation 430P/2021 Q2
Recovery Date August 20, 2021
Magnitude 18.5 mag
Recoverer B. T. Bolin (Zwicky Transient Facility, Palomar)

* Orbital Elements

Epoch 2021 Dec. 12.0 TT = JDT 2459560.5                                         
T 2021 Dec. 2.23466 TT                                  Rudenko                 
q   1.5546552            (2000.0)            P               Q                  
n   0.17997041     Peri.   94.50364     -0.85627874     -0.51257654             
a   3.1069575      Node    54.67379     +0.43754921     -0.78533121             
e   0.4996214      Incl.    4.47483     +0.27447661     -0.34716016             
P   5.48                                                                        
From 251 observations 2011 Jan. 11-2021 Aug. 25, mean residual 0".7.            

* Finding Charts

* Magnitudes Graph

        m1 = 14.0 + 5 log d + 10.0 log r

---------------------------------------------------------------------

The orbital elements are published on M.P.E.C. 2021-Q69.
The charts are made with StellaNavigator Ver.10 (AstroArts).
The magnitudes graphs are made with Comet for Windows.

---------------------------------------------------------------------

Copyright(C) Seiichi Yoshida (comet@aerith.net). All rights reserved.